GFSWCAN_sfc_rhum_072.txt.gz
RH
90 90 89 87 87 87 76 74 76 70 68 68 68 67 67 67 67 74 79 81 84 84 68 62 64 80 81 89 97 82 74 71 72 72 69 64 62 61 63 61 69 68 76 75 66 77 66 41 53 71 52 45 42 49
90 92 92 90 91 85 85 85 76 70 69 69 67 65 64 66 65 73 89 77 85 92 70 61 55 55 64 70 87 84 84 80 74 75 78 74 66 70 64 63 64 66 55 54 56 48 43 41 50 45 45 43 43 46
93 91 90 92 88 86 85 83 72 70 70 67 64 64 65 66 65 70 90 80 89 95 76 76 65 52 52 54 50 88 85 80 76 67 76 74 71 68 63 58 64 61 57 57 61 51 49 43 43 45 46 49 46 47
88 91 93 89 87 85 78 74 72 72 70 67 66 66 65 59 64 67 91 83 84 87 91 63 54 67 59 69 63 62 83 84 81 83 83 80 71 67 64 64 62 55 60 60 57 49 47 48 51 58 55 56 57 55
94 92 90 88 83 81 84 84 75 71 70 64 68 69 64 60 64 77 81 80 75 91 80 75 58 53 56 80 76 76 77 90 94 92 89 84 82 74 74 74 72 60 55 56 49 52 53 51 61 62 61 62 59 59
92 90 90 86 84 84 83 76 72 73 72 65 68 69 61 62 69 92 87 88 83 87 97 89 66 77 80 85 90 88 89 94 91 87 82 80 68 67 79 75 47 57 58 56 57 68 64 62 64 62 64 63 60 61
92 90 82 82 85 84 76 74 74 75 72 70 72 72 69 69 86 98 92 82 84 86 96 95 97 82 80 90 98 98 97 96 91 90 88 79 77 75 77 74 50 64 65 64 68 69 71 71 70 66 67 63 61 60
90 86 85 84 80 80 76 75 73 73 72 73 74 75 72 73 82 97 83 83 86 97 97 100 97 98 96 97 98 91 99 98 90 87 92 87 87 87 99 78 68 71 68 67 74 73 73 72 72 68 70 64 64 62
90 87 86 83 82 79 76 74 73 72 74 76 74 74 88 87 92 96 83 84 87 94 100 100 100 100 87 98 96 96 86 95 86 96 90 90 93 98 80 76 70 75 78 80 80 79 73 75 74 75 79 82 79 70
91 90 88 86 81 79 80 76 73 76 78 69 84 96 97 91 84 80 96 99 100 99 99 99 96 99 92 80 94 89 95 96 100 96 92 99 97 83 73 74 75 76 73 81 95 90 87 90 85 79 77 74 73 72
92 89 89 85 81 81 83 78 74 78 71 84 84 96 94 85 97 99 100 100 99 100 98 97 95 98 96 98 98 91 100 100 100 92 100 99 93 96 74 75 75 78 79 80 87 88 84 81 78 74 72 72 75 74
92 90 90 86 82 81 82 74 74 85 88 85 84 85 90 99 100 100 99 100 100 97 98 94 82 82 97 97 98 99 99 100 96 98 100 98 93 77 73 78 79 79 79 84 81 84 82 79 74 77 87 83 67 64
91 92 90 86 85 82 79 73 72 71 75 88 97 100 100 100 100 99 97 100 100 100 100 100 100 95 97 97 100 100 100 98 98 100 87 79 82 76 77 80 85 85 81 78 80 84 89 88 81 84 85 77 64 60
89 93 91 89 86 83 78 72 69 74 88 95 100 99 100 99 98 100 100 100 100 100 100 99 100 99 99 100 99 100 99 100 99 95 90 89 82 79 85 91 94 94 95 94 92 93 95 95 97 96 91 84 80 78
88 90 92 92 89 84 80 68 71 89 92 95 100 99 96 97 99 100 100 100 100 100 99 99 100 96 100 100 99 100 100 97 88 90 98 83 82 85 92 95 96 96 97 99 100 100 99 98 98 99 99 99 98 95
87 86 93 90 91 89 74 77 92 89 98 99 97 99 92 97 97 99 100 100 100 99 100 98 100 100 100 100 99 100 96 93 93 99 97 94 95 94 92 80 75 69 72 81 84 90 92 93 95 96 90 89 95 98
86 95 90 90 82 82 77 87 96 100 99 97 96 90 95 98 98 96 100 99 99 100 100 100 100 98 99 97 98 91 94 86 90 90 95 96 94 80 73 67 65 70 73 74 75 79 84 86 82 81 86 84 89 83
95 92 91 90 85 77 85 92 95 98 84 95 99 90 89 90 97 92 92 96 99 99 99 100 100 98 95 94 86 86 90 87 85 83 84 82 77 75 67 60 70 68 66 69 79 79 76 84 85 87 90 90 79 74
93 94 88 84 81 80 82 91 94 98 96 94 92 91 92 88 88 90 93 91 92 99 100 100 100 96 86 83 84 89 86 83 79 81 81 82 76 69 67 78 76 73 72 73 68 68 67 66 75 74 80 86 87 82
89 90 86 84 72 84 80 89 92 97 98 91 94 94 94 91 88 87 88 88 93 96 98 98 88 82 81 77 84 83 82 76 77 83 80 81 77 86 81 73 64 73 67 68 64 64 66 60 60 72 79 73 84 84
92 90 81 83 87 84 88 89 90 97 96 98 95 92 93 92 92 96 96 92 99 99 97 81 80 81 84 82 79 80 81 78 74 68 71 81 79 76 77 76 76 73 70 70 71 64 69 67 68 71 88 81 70 72
99 88 98 92 94 90 87 91 93 92 97 95 93 94 96 96 95 95 96 100 98 91 85 82 82 85 87 85 82 80 79 71 70 70 76 80 86 82 75 71 75 79 79 81 74 69 66 66 69 71 75 77 75 69
93 95 98 96 94 94 90 89 87 92 90 90 94 92 92 96 93 91 98 91 88 84 87 88 92 92 91 85 77 78 74 68 66 66 68 59 61 71 73 72 73 84 81 71 70 72 77 74 72 77 76 74 72 69
97 98 97 97 96 94 85 90 88 94 94 92 97 90 86 93 92 95 94 86 82 83 83 90 88 85 80 87 77 74 72 67 66 64 63 62 66 59 69 69 62 67 70 69 76 77 74 73 77 74 75 78 77 76
98 98 92 100 95 94 86 90 99 94 94 95 99 90 88 94 94 95 86 80 82 84 82 87 89 87 92 90 78 71 79 66 63 60 65 65 65 68 71 68 64 63 66 79 73 74 76 79 79 80 80 80 86 91
99 95 97 96 98 94 92 85 95 92 93 96 94 90 94 93 93 81 79 81 74 78 85 88 89 92 88 85 81 76 73 79 70 61 62 71 68 72 79 74 76 73 72 71 79 81 81 82 86 92 87 87 87 88
100 99 94 82 82 81 85 89 85 88 97 91 85 95 91 91 84 63 71 76 77 79 87 89 90 88 87 82 79 81 85 85 82 77 75 74 70 70 80 82 83 73 76 80 84 88 92 92 92 91 91 88 87 87
90 93 96 96 87 86 85 92 94 94 81 76 77 88 83 79 71 70 71 77 82 88 91 89 90 90 87 85 85 87 91 90 90 87 83 80 81 84 88 86 86 84 88 91 91 93 94 94 94 92 92 93 90 84
97 92 88 99 97 95 86 78 78 75 68 85 90 87 81 77 81 75 80 88 90 91 91 92 92 91 88 88 88 88 89 90 81 78 81 74 79 83 89 88 89 90 88 90 88 87 91 93 94 93 93 92 89 89
98 93 94 98 92 91 83 80 85 88 86 86 85 86 83 83 85 90 90 92 90 86 85 90 93 92 91 87 87 86 89 88 88 83 83 85 86 85 91 92 92 90 90 90 93 93 89 91 94 94 93 91 89 90
94 94 97 97 93 93 95 93 92 86 91 95 94 92 76 88 85 85 85 77 76 92 90 92 96 94 90 90 89 85 81 88 90 89 92 91 92 94 94 94 92 92 94 94 94 93 94 96 94 96 95 96 96 91
100 95 94 97 95 94 97 98 98 97 96 98 91 98 95 94 89 79 90 94 94 90 83 83 86 86 89 84 83 88 77 89 90 92 94 94 94 94 94 94 96 96 96 96 95 95 95 96 95 96 95 96 96 95
100 99 99 96 93 91 97 93 95 95 99 98 93 94 96 89 81 82 91 93 93 93 89 90 88 83 87 83 84 92 89 93 96 86 79 76 71 78 90 95 96 95 95 96 96 96 97 97 97 97 96 97 96 96

GFSWCAN_sfc_rhum_075.txt.gz
RH
93 90 89 90 90 87 86 77 85 78 70 69 68 68 67 67 70 70 66 69 79 80 60 52 47 62 72 84 98 82 74 66 63 66 63 55 52 50 54 52 57 55 62 62 58 65 66 41 56 64 54 46 47 43
93 92 91 91 91 90 85 84 84 77 70 70 69 65 66 67 68 71 75 67 77 97 71 52 51 49 47 55 80 75 88 76 69 70 62 60 54 55 54 54 52 57 49 51 51 49 42 38 42 38 38 43 44 42
87 89 91 91 91 86 83 83 80 72 72 69 67 68 66 66 62 66 76 69 81 95 67 57 49 42 42 43 47 70 78 80 72 64 69 61 65 57 55 50 54 50 47 50 54 44 40 40 42 45 46 50 46 44
85 88 90 91 84 82 83 78 73 71 68 68 64 68 69 68 63 62 76 69 83 86 88 53 35 52 47 54 49 45 64 79 83 79 85 75 66 56 55 58 56 50 52 51 50 43 40 40 49 53 52 52 53 52
92 91 90 86 86 82 80 80 75 70 71 72 69 66 70 68 58 69 72 66 68 87 79 67 52 42 41 40 71 62 64 67 91 92 83 76 70 62 58 62 56 48 45 52 43 46 46 46 53 57 56 57 55 56
90 91 89 88 84 80 78 77 73 73 74 75 72 70 72 71 68 93 97 69 70 84 99 88 47 54 62 61 83 72 76 81 94 90 86 74 63 60 66 66 41 42 42 40 45 55 56 56 57 55 58 59 55 56
93 92 89 84 80 82 82 76 72 74 74 74 73 73 75 75 79 97 94 85 76 81 96 84 77 67 63 82 93 95 88 94 96 88 78 67 68 70 67 73 42 43 45 54 60 60 62 66 66 62 62 60 58 54
94 90 84 82 81 81 79 76 75 74 74 74 75 76 73 74 78 92 86 83 81 96 91 98 79 96 78 93 87 94 97 95 96 91 81 71 71 83 95 64 54 55 58 60 60 63 65 62 62 64 62 62 65 61
92 89 86 86 84 81 78 76 75 75 75 77 77 71 81 86 89 84 84 86 87 95 97 98 99 100 86 94 83 97 86 97 90 94 77 73 72 94 74 67 59 61 69 73 74 75 74 70 68 68 68 69 71 68
90 89 88 87 85 80 79 79 75 77 78 74 73 82 87 87 86 85 96 99 99 98 99 98 72 99 98 94 97 93 90 95 100 85 85 98 97 64 69 70 70 71 71 74 81 80 82 84 79 76 71 64 64 68
90 89 88 88 84 80 77 81 78 77 70 73 70 81 92 77 92 99 100 100 95 99 91 85 78 97 94 98 99 86 100 98 99 87 94 100 85 88 71 73 71 72 72 75 78 79 79 80 79 72 68 66 70 71
90 89 89 89 85 81 79 82 76 77 82 80 84 76 81 88 99 100 97 98 99 84 95 96 94 94 97 96 99 99 100 100 98 96 100 94 86 75 69 69 73 72 71 72 72 75 76 78 76 74 75 81 77 65
88 90 91 89 86 83 82 80 72 72 70 75 92 100 100 100 100 98 96 98 100 100 100 100 100 88 96 98 99 100 100 99 98 99 84 75 80 69 67 73 81 80 78 75 76 77 80 85 84 88 89 85 79 72
85 87 92 92 89 86 83 77 69 68 76 86 98 88 97 98 98 100 99 100 100 100 100 100 100 100 98 100 100 100 100 100 100 95 86 93 81 71 77 87 88 93 96 94 93 93 94 96 98 99 98 96 92 88
85 88 89 92 91 88 83 73 69 76 82 93 96 90 91 91 97 100 100 100 100 100 100 100 100 100 100 100 99 98 100 97 86 89 99 98 73 80 90 92 92 93 98 100 100 100 100 100 99 99 99 96 95 95
85 87 81 88 90 88 87 85 85 84 96 93 90 91 79 94 97 94 100 100 100 99 100 100 100 100 100 100 99 100 97 94 100 100 100 99 98 87 85 73 63 59 62 68 75 85 84 85 88 88 92 94 94 94
85 79 87 92 91 83 78 89 96 100 95 96 94 84 90 90 92 88 88 93 96 100 100 100 100 100 100 99 93 97 98 96 90 88 99 100 99 96 65 60 56 59 60 61 63 68 71 75 75 74 84 88 84 85
79 81 91 87 83 84 89 91 100 98 88 94 95 83 78 76 87 87 78 82 90 97 98 100 100 100 96 99 97 86 89 84 82 85 95 96 93 69 62 51 63 59 53 56 66 69 64 67 72 67 77 83 80 80
77 87 90 82 81 93 98 94 98 94 92 88 84 82 83 80 75 78 83 82 82 88 97 99 99 94 85 79 84 88 82 80 75 76 76 70 64 61 58 78 73 68 68 66 61 60 60 60 60 65 70 70 73 74
85 88 87 81 78 100 93 88 91 96 92 86 87 89 86 83 80 80 80 79 84 94 95 96 84 77 78 78 81 80 78 71 72 79 78 78 72 84 79 72 58 66 61 62 59 59 58 54 52 57 71 76 71 70
91 94 84 84 94 86 85 81 82 85 88 86 86 86 84 87 90 91 90 88 95 98 88 70 67 66 82 75 72 75 74 68 68 65 71 78 72 72 74 72 72 64 60 62 67 60 64 60 61 60 79 68 70 71
98 88 99 97 99 97 95 86 89 84 92 87 88 87 89 90 92 93 91 95 93 82 72 72 72 76 77 76 74 75 74 70 64 67 72 73 80 80 76 69 70 76 76 78 69 65 59 59 61 64 66 68 66 63
95 97 99 100 97 95 95 83 87 85 85 82 87 85 84 90 90 86 93 86 82 72 75 76 82 87 87 82 76 72 70 64 62 58 61 50 57 62 66 66 67 82 80 69 64 65 70 65 65 69 67 66 66 65
91 100 98 97 97 97 84 86 76 81 84 82 86 82 80 88 86 90 88 79 73 78 72 84 76 76 77 90 79 72 70 63 59 57 54 52 60 51 62 64 53 61 65 62 69 72 69 67 69 68 69 73 74 74
100 95 96 96 93 92 88 85 86 79 81 80 86 83 84 87 87 86 77 77 78 81 74 74 78 79 89 86 78 72 77 64 65 65 62 53 57 60 65 61 54 54 58 75 70 68 71 74 74 76 76 77 82 89
97 96 95 92 95 94 90 88 86 84 77 86 83 81 87 85 86 83 73 81 71 73 77 79 82 83 83 83 79 74 70 72 66 56 58 60 59 68 82 73 70 69 63 64 75 76 77 78 81 89 87 85 84 87
98 99 88 74 73 75 75 74 72 76 87 84 77 87 85 94 88 67 60 69 74 74 80 82 84 84 84 83 78 75 77 79 82 77 70 67 63 62 78 83 83 70 71 74 79 83 88 89 90 89 90 88 87 88
87 88 97 91 78 78 81 78 85 88 73 63 69 90 85 80 75 68 65 70 81 83 85 84 85 86 87 86 84 83 85 85 85 83 80 76 73 76 83 80 81 78 84 86 88 91 92 93 93 92 92 92 90 85
93 85 81 97 89 85 83 78 76 66 57 70 83 79 78 66 73 69 70 76 85 86 85 86 89 90 87 84 84 86 86 86 85 83 79 73 78 87 86 84 86 87 86 87 83 82 87 92 93 93 93 92 90 91
92 87 86 93 93 92 83 74 80 77 70 75 78 75 74 77 80 81 81 82 84 82 77 81 89 94 91 92 90 88 88 87 88 82 81 83 88 88 90 90 90 89 89 90 92 92 87 88 92 92 93 92 90 91
89 93 94 88 92 84 87 82 82 72 80 86 87 87 70 79 80 78 75 68 71 76 86 84 88 92 89 90 89 87 86 89 88 86 84 88 89 90 92 92 92 92 93 93 94 94 94 95 94 94 94 95 95 93
95 97 95 98 93 90 88 90 89 88 87 90 88 90 88 87 88 78 80 86 88 83 80 78 80 77 85 86 86 84 74 88 85 86 90 92 92 92 92 94 96 96 96 95 94 95 95 96 96 96 95 96 96 96
96 94 96 91 91 89 92 90 86 89 89 90 86 84 86 83 83 77 81 85 88 86 86 88 89 87 89 85 84 85 82 88 87 84 86 84 82 79 94 96 96 96 95 95 95 96 97 97 97 96 96 97 97 97

GFSWCAN_sfc_rhum_078.txt.gz
RH
92 93 93 92 91 90 86 85 80 80 76 70 70 68 66 67 69 80 79 77 86 86 70 60 53 66 64 84 99 96 88 83 84 87 84 74 73 70 74 70 77 71 82 85 76 83 83 58 70 84 68 60 57 60
90 92 90 89 89 90 88 83 83 82 75 72 71 68 69 67 67 68 85 73 77 96 75 58 56 55 58 57 72 81 88 88 86 86 91 79 73 73 70 77 71 78 69 76 70 72 52 52 53 50 50 58 60 59
86 84 85 89 89 88 86 82 82 78 73 71 68 66 69 69 67 68 84 82 88 93 73 65 63 48 48 54 51 85 84 92 87 89 94 84 85 76 80 75 74 70 60 69 66 56 52 48 60 58 61 66 62 60
85 86 87 88 89 84 82 80 77 74 72 68 69 69 66 70 70 60 82 80 89 94 98 61 37 49 43 50 53 54 66 69 80 89 91 90 80 68 74 74 72 70 72 63 64 56 55 60 67 68 65 66 66 63
88 90 90 88 84 84 82 77 77 75 71 72 74 74 70 70 73 77 81 79 80 96 93 80 62 52 49 53 58 60 60 66 89 95 93 90 83 79 74 82 80 65 63 74 74 66 63 71 72 66 69 70 68 69
92 92 90 88 86 82 79 78 77 75 74 76 75 74 73 74 78 88 94 84 76 86 100 97 61 52 46 56 53 75 81 79 93 96 93 90 72 80 87 78 54 54 52 55 70 72 72 72 68 69 71 71 69 71
92 92 92 88 83 79 79 80 78 76 76 75 75 75 75 76 88 92 92 93 83 92 99 92 88 69 65 72 85 92 80 93 96 93 93 87 80 80 85 88 54 54 55 70 71 72 77 77 84 75 75 73 69 70
94 92 89 84 80 79 81 80 79 77 76 75 76 76 74 72 79 94 87 80 87 97 99 95 89 78 80 96 97 93 98 98 96 93 92 91 86 85 92 78 75 73 71 71 74 76 78 74 79 71 76 72 76 78
95 92 87 84 83 83 80 78 80 78 78 77 77 70 86 88 95 96 82 83 93 95 99 92 96 97 94 95 90 94 94 98 95 97 92 89 86 98 81 73 72 77 82 86 77 76 77 76 76 82 83 82 84 81
92 88 85 85 84 83 80 79 80 79 78 74 79 84 90 97 83 86 95 99 100 100 99 96 75 91 94 97 98 98 96 99 100 92 93 99 96 77 80 82 82 82 81 77 83 86 88 89 86 81 79 78 78 80
88 88 86 85 87 84 79 78 79 76 73 83 89 93 88 74 91 96 100 99 91 97 92 87 79 89 89 100 100 95 100 99 99 97 94 93 88 88 78 82 75 75 74 76 79 81 80 80 81 79 76 76 79 78
86 87 87 87 88 84 80 80 78 83 90 90 91 84 89 85 93 100 98 99 99 96 96 99 99 98 98 98 100 100 98 100 99 96 100 94 92 84 76 76 77 79 73 74 72 76 76 78 80 82 82 82 82 78
87 89 90 89 89 86 83 82 74 73 73 78 94 99 99 99 97 98 97 98 98 100 100 99 99 99 98 99 100 100 99 99 96 99 83 79 91 78 81 84 88 80 78 77 80 81 81 84 84 93 93 87 88 85
82 85 86 89 90 89 86 80 70 69 86 90 97 90 95 98 98 99 99 98 99 100 99 98 99 100 99 100 100 99 99 99 99 99 96 99 99 81 88 88 86 94 95 98 97 97 98 99 98 99 99 98 98 96
81 86 89 89 91 89 88 78 68 84 90 96 95 96 90 89 98 99 95 97 95 99 98 99 100 100 100 100 99 100 100 92 88 97 100 100 100 93 97 95 94 95 97 99 97 96 95 98 98 98 99 99 98 96
81 87 89 82 85 85 85 83 89 90 95 93 89 97 88 96 96 96 94 91 97 96 98 100 100 100 100 100 99 99 99 98 100 100 100 100 100 99 98 74 62 62 66 71 78 85 86 89 90 92 94 95 95 97
79 91 88 90 90 88 76 92 100 100 96 92 97 80 84 88 93 85 84 82 84 97 99 99 99 99 99 99 99 100 100 100 100 99 100 100 99 99 94 77 60 64 66 69 71 76 73 68 80 75 83 92 94 93
86 84 89 87 85 86 95 99 99 94 93 95 94 96 90 91 96 92 88 91 96 97 95 99 99 99 99 99 99 100 100 98 98 99 100 99 99 99 93 61 70 65 62 68 83 85 84 83 79 83 87 87 84 87
79 86 89 84 86 96 99 100 99 99 95 90 95 96 92 94 90 89 93 84 82 84 94 97 99 99 99 99 100 99 98 96 95 89 94 96 94 74 66 90 88 85 84 85 74 87 83 73 69 74 83 88 92 86
74 80 85 79 84 100 99 98 94 95 98 96 93 91 89 97 96 93 96 94 87 90 91 95 91 94 96 92 96 97 93 85 85 89 88 87 82 93 92 91 86 85 81 80 82 63 86 78 66 67 75 85 87 88
86 93 86 91 100 96 95 96 95 96 97 97 96 97 97 96 98 98 91 92 95 95 99 92 88 90 89 94 90 90 89 83 84 82 95 96 88 94 96 94 92 92 92 93 94 90 81 88 86 81 93 88 85 80
98 90 99 99 100 98 98 96 98 96 98 97 97 97 98 98 98 98 97 95 94 96 96 90 94 95 95 89 92 89 88 86 77 84 82 84 96 96 96 96 94 95 96 96 95 94 90 89 84 87 91 93 83 82
92 97 100 100 99 98 98 95 97 96 97 94 96 98 96 98 98 96 99 97 96 96 94 94 94 95 95 91 89 88 84 82 85 78 76 68 80 87 95 88 90 96 96 96 94 94 94 75 84 90 94 91 92 91
94 100 99 98 98 98 97 96 85 95 96 96 97 91 90 98 97 98 98 96 94 96 93 91 95 95 95 96 98 96 94 92 91 85 68 70 82 85 94 88 74 87 93 93 94 95 95 93 78 92 94 94 96 95
100 97 98 98 97 96 96 94 94 95 94 93 92 91 97 97 98 98 92 91 95 96 95 93 95 97 98 98 98 95 90 92 93 89 82 75 73 90 91 92 78 76 88 93 94 94 94 95 95 95 95 96 96 96
98 96 98 91 98 99 95 94 91 90 92 92 93 96 98 97 96 88 91 92 93 93 92 94 96 97 98 97 98 97 95 93 86 83 80 85 92 94 96 93 93 93 93 93 95 94 94 95 96 96 97 96 88 93
97 98 93 80 86 82 88 84 83 93 93 86 93 98 96 96 96 86 91 91 88 94 95 96 96 96 96 97 96 96 96 97 96 94 94 94 92 92 94 94 94 93 94 93 95 96 97 98 99 99 98 97 96 96
94 92 96 95 91 94 90 90 91 88 87 87 86 93 86 83 80 88 84 91 94 96 96 97 96 96 97 97 97 96 97 97 95 95 97 96 96 96 94 96 96 73 95 96 98 98 100 100 100 98 98 97 94 95
98 92 90 98 95 95 91 83 85 85 74 84 88 91 88 89 90 90 90 93 97 96 96 95 93 98 98 97 97 97 97 94 87 80 77 89 92 93 97 97 97 97 97 97 83 83 94 94 94 95 96 96 95 97
96 90 93 94 95 93 90 86 94 94 90 94 96 93 94 94 90 96 95 97 94 85 78 83 90 93 91 95 95 97 96 95 94 89 88 89 90 96 97 97 97 97 98 99 100 99 88 95 96 97 98 97 98 97
98 98 99 98 97 95 98 96 96 88 94 97 98 97 93 93 91 94 87 75 73 88 93 89 98 94 92 95 93 96 93 93 89 92 94 96 97 96 97 97 97 98 100 100 100 100 99 99 100 99 99 98 98 97
99 100 99 100 96 98 97 98 99 98 98 99 97 99 97 97 96 88 97 95 95 91 80 87 94 89 90 91 94 96 80 96 91 91 87 96 96 96 97 98 99 100 99 98 99 99 100 100 100 100 100 99 98 97
100 99 100 99 98 95 98 96 98 97 98 99 96 96 96 95 85 86 98 98 98 98 98 99 100 99 97 96 94 92 85 92 82 76 79 79 83 85 99 99 99 98 99 98 99 99 100 100 100 100 100 100 100 100

GFSWCAN_sfc_rhum_084.txt.gz
RH
90 90 89 90 92 93 90 88 82 80 80 73 72 72 70 70 72 89 92 92 94 88 86 75 72 83 82 85 91 82 85 97 95 95 96 93 89 85 78 80 84 80 88 91 83 88 84 70 77 79 76 75 65 70
91 91 92 94 93 89 90 88 83 82 79 74 72 69 69 70 68 80 95 86 89 99 88 72 69 68 68 68 77 81 97 99 91 97 92 97 91 91 86 92 78 79 74 78 77 75 60 66 71 65 62 58 60 68
92 93 94 92 90 91 83 81 82 81 77 72 67 67 71 72 71 73 90 89 94 98 94 89 76 55 68 70 58 85 87 84 93 77 98 96 91 90 93 83 86 80 74 74 71 65 67 75 75 73 74 72 73 70
94 94 92 91 91 90 82 83 81 77 73 68 68 72 73 73 72 73 93 86 93 94 96 86 59 64 58 69 71 64 71 83 94 90 98 98 98 79 84 81 81 72 76 73 75 77 84 84 82 82 77 74 74 73
92 90 92 92 90 85 83 82 79 76 71 70 73 74 74 74 75 87 96 96 91 94 94 93 83 72 66 72 73 75 77 78 99 98 98 95 95 91 90 90 90 76 71 77 77 70 71 82 81 78 77 78 77 77
89 91 92 91 87 85 83 80 77 75 74 74 74 74 74 76 78 87 91 90 91 90 100 94 81 79 63 70 74 78 81 82 88 99 94 90 89 86 96 93 67 66 63 61 73 83 81 83 78 81 83 83 83 82
91 93 91 90 87 82 80 79 78 77 75 75 74 75 75 75 90 90 88 88 83 92 99 97 86 74 68 77 82 93 81 90 94 96 94 95 90 82 92 96 67 74 75 81 80 79 86 86 88 85 81 82 79 84
92 91 91 89 83 81 80 81 79 77 76 76 76 73 72 70 80 95 91 85 89 89 93 99 90 85 88 99 95 92 95 95 97 94 90 89 87 89 96 87 85 87 86 85 85 83 84 82 83 85 86 82 83 78
91 91 88 85 82 82 83 79 77 77 78 76 71 73 88 91 96 94 82 84 94 93 97 97 98 98 86 92 97 95 94 100 95 97 91 92 96 95 90 84 85 87 87 88 87 84 84 85 85 81 80 82 85 88
91 88 87 86 87 86 81 76 75 78 74 72 83 88 95 93 77 82 94 94 94 96 99 97 93 94 94 99 99 100 93 99 100 97 92 99 90 89 92 92 91 88 79 82 86 94 92 91 87 84 83 79 82 86
88 88 88 88 89 86 79 78 78 75 76 92 94 97 93 80 91 96 92 94 95 96 97 97 97 95 91 99 99 98 100 99 98 95 99 98 98 96 93 91 87 78 79 81 81 82 82 83 84 84 83 82 83 83
88 87 87 88 88 84 80 80 78 91 95 90 91 92 95 94 95 94 98 96 94 98 94 97 93 91 96 98 100 99 100 99 98 96 99 97 93 94 89 86 84 82 77 82 81 84 82 82 85 88 90 90 89 86
87 89 88 89 88 84 82 82 77 75 81 91 84 86 90 94 89 99 99 92 94 96 90 88 92 92 96 99 99 100 99 98 93 99 93 86 94 92 95 94 90 86 80 84 90 90 92 94 96 96 96 92 89 88
91 91 91 91 90 89 86 81 71 78 88 93 94 75 94 98 93 97 98 88 87 94 91 88 94 98 97 100 99 100 99 99 99 99 94 97 95 84 92 94 90 97 98 95 93 92 94 96 93 93 90 90 92 91
85 86 87 88 88 91 88 78 72 90 93 97 94 83 95 91 98 94 88 92 94 82 91 92 96 99 99 99 99 99 99 98 92 94 100 99 98 98 99 99 99 98 98 98 98 97 94 91 90 94 89 94 95 95
84 86 91 84 87 90 81 82 89 90 96 95 97 97 93 97 98 99 99 98 96 89 92 96 99 99 99 99 99 99 98 98 99 100 100 100 99 99 99 98 73 71 73 75 78 80 75 79 94 92 92 94 95 98
84 97 88 88 90 84 81 93 98 98 94 93 94 81 91 97 96 98 98 97 91 94 96 97 100 98 98 98 99 99 99 99 99 99 99 99 99 99 99 98 97 66 61 61 64 68 67 68 70 77 86 90 94 94
95 96 90 86 86 88 98 100 97 97 96 95 98 98 94 92 98 99 98 98 92 83 88 96 98 100 97 98 99 99 99 99 99 99 99 99 99 99 99 98 91 60 58 64 81 84 88 82 77 88 95 92 93 92
95 94 86 80 85 97 96 99 99 98 93 94 87 92 89 85 91 94 95 91 84 84 96 96 96 97 98 98 98 97 99 100 99 98 99 99 100 99 99 98 87 86 84 85 68 84 84 75 70 71 74 86 91 84
82 86 83 81 80 96 97 99 96 97 99 96 96 92 87 91 96 97 98 97 81 85 99 97 87 91 96 94 98 95 89 95 97 92 97 99 99 99 98 90 81 88 84 87 86 71 89 79 70 70 76 82 86 88
87 92 88 92 100 99 98 98 98 97 98 98 98 99 98 99 100 100 98 94 90 90 94 91 92 86 90 94 84 92 94 94 96 95 97 95 94 98 97 92 87 92 91 95 91 89 88 93 92 88 97 91 91 80
98 90 99 98 100 98 99 97 94 98 98 95 98 100 100 99 100 100 99 98 92 96 96 94 96 95 92 86 72 75 76 83 88 94 84 87 98 97 96 93 91 92 96 95 95 95 94 94 96 96 97 97 89 93
90 94 100 99 98 98 94 97 98 97 97 93 98 98 97 100 99 97 100 97 93 94 96 97 94 95 93 86 86 87 90 92 95 94 89 92 92 98 97 94 87 91 95 95 97 96 96 79 91 94 97 96 97 97
91 98 97 99 97 96 96 98 95 98 97 97 99 88 87 99 97 100 96 94 92 97 98 93 96 90 92 94 96 97 96 98 97 95 90 90 94 88 90 84 74 91 93 96 97 97 97 96 83 95 96 97 97 97
92 95 94 90 97 97 98 99 100 98 93 95 98 90 94 98 96 99 93 86 96 97 95 97 97 97 96 96 96 96 95 96 96 94 94 95 93 77 83 94 86 79 96 96 94 96 96 97 97 97 97 98 98 97
100 94 97 98 97 98 96 100 100 97 96 91 90 96 98 97 91 82 86 89 92 90 89 88 87 92 93 95 95 97 95 97 97 94 93 96 94 90 90 88 92 85 97 94 94 96 97 97 97 98 98 97 92 98
99 99 96 90 92 93 97 96 92 94 94 92 92 98 91 90 86 76 88 94 89 88 87 89 86 88 87 90 96 97 98 98 94 93 96 97 97 95 91 89 89 85 96 96 96 94 94 96 97 98 98 97 97 97
91 98 96 95 97 96 92 95 90 87 84 80 83 94 87 82 66 77 87 92 94 96 95 96 95 93 93 92 97 98 98 99 96 96 96 96 98 98 97 98 97 78 99 97 97 98 98 98 100 100 99 98 97 98
100 97 93 100 98 99 96 90 88 84 72 81 87 85 82 80 88 92 90 95 99 95 86 82 78 99 99 99 100 100 98 96 89 85 87 90 90 86 97 98 98 98 98 97 80 85 95 96 96 97 97 99 98 98
98 95 97 99 96 95 88 85 92 95 89 90 90 94 93 93 89 97 97 97 89 80 73 78 89 91 85 93 89 91 98 94 88 84 88 86 86 93 94 94 96 98 98 98 98 98 87 96 92 96 97 97 98 100
98 97 97 98 97 93 94 93 94 91 94 97 99 93 79 90 88 92 88 86 76 82 91 77 76 93 90 94 95 97 88 94 92 89 92 96 95 93 93 93 96 97 98 98 98 98 99 100 100 100 100 100 100 100
99 99 98 100 96 97 98 99 100 100 100 100 94 100 98 97 92 84 90 94 95 89 78 75 88 72 93 91 93 92 71 95 96 94 95 94 93 92 92 94 96 96 97 96 98 99 99 100 100 100 100 100 100 100
99 99 100 100 99 98 97 97 94 97 99 100 97 97 95 92 80 82 97 100 86 86 92 95 98 100 99 99 97 98 88 97 99 88 84 82 78 88 95 96 96 97 96 96 97 97 99 100 100 100 100 100 100 100